map of VRB home
VRB - Airport
Location
City:  Vero Beach, Florida, United States
Name:Vero Beach Regional
ICAO:KVRB
IATA:VRB
FAA LID:VRB

Details
Type:Airport (Part 139 Class I)
Use:Public/Civil
Latitude:2739'20"N (27.655556)
Longitude:8025'05"W (-80.417943)
Datum:WGS 1984
Elevation:23 ft (7 m)
Variation:6.83W (WMM2015 magnetic declination)
-0.09 annual change
Runways:3
Longest:7314 × 106 ft (2229 × 32.5 m), paved

Time
Time Zone:UTC-5 (DST-4)
Local Time:

Weather
METAR:KVRB 210553Z AUTO 08010KT 10SM CLR 26/19 A3008 RMK AO2 SLP186 T02560189 10261 20250 58006
TAF:KVRB 210534Z 2106/2206 08010G19KT P6SM FEW025 SCT050
FM220200 09012KT P6SM VCSH SCT025 BKN050

Related Locations
Nearby:
Farthest:USL: 11588 mi / 18649 km
Useless Loop, WA, AU

Find:

   beyond  
but within

Other Information
Maps:
NOTAMs:
Links:
Sources:

  
flag of United States
flag of Florida
  

Airport Diagram

Airport diagram for VRB

Airport diagram PDF

Sectional Chart

Flight Planning
at skyvector.com

Satellite Image

Google Maps Satellite view

 

Copyright © 2004-2017 Karl L. Swartz. All rights reserved.
The Great Circle Mapper name and logo are trademarks of the Great Circle Mapper.
All other trademarks mentioned herein belong to their respective owners.
Please see credits for attibutions and further copyright information.

  Follow gcmap on Facebook Follow gcmap on Twitter Follow gcmap on Google+ GCmap on LinkedIn

hCard Microformat

Geo Microformat